Location: Moonridge Observatory
(39.2268°N, 77.7914°W)
Time: 19:41:34
(UTC-04:00)

Amateur Radio Satellites - All Passes

Search period start: 03 July 2015 19:11
Search period end: 04 July 2015 19:11
Location: Moonridge Observatory, 39.2268°N, 77.7914°W

Satellite Date Start Highest point End Downlink Frequencies (MHz)
Time Altitude Azimuth
HO-68 03 Jul 19:19:15 19:23:38 18° 58° (ENE) 19:28:20 435.675
CUSAT 1 03 Jul 19:22:00 19:24:28 34° 77° (ENE) 19:26:53 437.405
CUBESAT XI-V 03 Jul 19:23:28 19:28:11 72° 101° (E) 19:32:50 437.345
GOMX 1 03 Jul 19:53:07 19:57:31 30° 71° (ENE) 20:01:47 467.674
STRAND 1 03 Jul 19:53:59 19:58:58 47° 99° (E) 20:03:54 437.568
SRMSAT 03 Jul 19:57:42 19:58:17 10° 175° (S) 19:58:56 437.500
CUTE 1.7 + AOD 2 03 Jul 19:58:45 20:01:04 15° 67° (ENE) 20:03:34 437.475
CANX-2 03 Jul 20:01:26 20:04:14 18° 68° (ENE) 20:07:09 2200.000
PRISM 03 Jul 20:03:20 20:07:28 56° 100° (E) 20:11:35 437.425
CUTE-I 03 Jul 20:10:23 20:13:30 15° 271° (W) 20:16:22 437.470
BRITE-PL 03 Jul 20:11:30 20:17:01 74° 77° (ENE) 20:22:14 437.365/2234.400
DANDE 03 Jul 20:19:13 20:21:52 37° 265° (W) 20:24:17 436.750
DOVE 4 03 Jul 20:41:29 20:46:17 55° 75° (ENE) 20:50:51 437.250
SEEDS 03 Jul 20:46:49 20:50:43 41° 73° (ENE) 20:54:42 437.485
GONETS M04 03 Jul 20:47:12 20:55:53 69° 80° (E) 21:04:32
CUBEBUG 2 03 Jul 20:54:19 20:56:41 15° 68° (ENE) 20:59:13 437.445
AAUSAT CUBESAT 2 03 Jul 21:00:22 21:04:12 39° 73° (ENE) 21:08:06 437.432
ZACube-1 03 Jul 21:02:19 21:03:08 11° 65° (ENE) 21:04:12 437.345
CUBESAT XI-V 03 Jul 21:03:13 21:05:04 12° 296° (WNW) 21:06:39 437.345
HO-68 03 Jul 21:03:25 21:10:35 86° 252° (WSW) 21:17:48 435.675
Oscar 11 03 Jul 21:10:25 21:13:49 24° 69° (ENE) 21:17:19 145.826/435.025
M-CUBED/EXP-1 PRIME 03 Jul 21:13:07 21:16:32 24° 100° (E) 21:20:14 437.505
DELFI C3 03 Jul 21:23:11 21:26:12 21° 70° (ENE) 21:29:20 145.870
COMPASS 1 03 Jul 21:25:20 21:29:28 87° 252° (WSW) 21:33:40 437.405
GOMX 1 03 Jul 21:30:59 21:35:36 30° 264° (W) 21:39:55 467.674
CUTE 1.7 + AOD 2 03 Jul 21:32:37 21:36:39 44° 262° (W) 21:40:42 437.475
STRAND 1 03 Jul 21:34:03 21:37:51 21° 295° (WNW) 21:41:30 437.568
CINEMA 3 03 Jul 21:34:12 21:38:47 89° 257° (WSW) 21:43:11 145.822/145.860
CANX-2 03 Jul 21:36:00 21:39:55 36° 263° (W) 21:43:49 2200.000
FUNcube-1 03 Jul 21:36:05 21:39:30 25° 71° (ENE) 21:42:58 145.935
Cosmos 2499 03 Jul 21:36:18 21:42:58 31° 71° (ENE) 21:50:15 435.465 / 435.565
PRISM 03 Jul 21:40:38 21:42:29 12° 295° (WNW) 21:44:07 437.425
UWE-3 03 Jul 21:45:30 21:49:32 43° 74° (ENE) 21:53:32 435.000/436.395/437.385
SRMSAT 03 Jul 21:45:53 21:46:33 10° 185° (S) 21:47:10 437.500
BRITE-PL 03 Jul 21:53:18 21:56:02 13° 271° (W) 21:58:22 437.365/2234.400
VELOX 1 03 Jul 22:09:52 22:11:57 14° 65° (ENE) 22:14:15 145.980
AUBIESAT-1 03 Jul 22:13:42 22:17:57 84° 289° (WNW) 22:22:29 437.475
DX 1 03 Jul 22:20:42 22:24:32 31° 71° (ENE) 22:28:27 434.975-435.025
DOVE 4 03 Jul 22:21:34 22:24:22 15° 269° (W) 22:26:51 437.250
SEEDS 03 Jul 22:24:17 22:26:47 15° 270° (W) 22:29:06 437.485
CUBEBUG 2 03 Jul 22:28:56 22:33:06 44° 261° (W) 22:37:10 437.445
ZACube-1 03 Jul 22:34:51 22:39:03 64° 259° (W) 22:43:12 437.345
AAUSAT CUBESAT 2 03 Jul 22:37:30 22:40:02 15° 269° (W) 22:42:26 437.432
UKube-1 03 Jul 22:42:33 22:46:44 50° 73° (ENE) 22:50:58 .
GONETS M04 03 Jul 22:45:27 22:52:02 24° 277° (W) 22:58:14
Oscar 11 03 Jul 22:46:11 22:49:55 28° 265° (W) 22:53:35 145.826/435.025
M-CUBED/EXP-1 PRIME 03 Jul 22:47:35 22:51:21 31° 293° (WNW) 22:55:16 437.505
ANTELSAT 03 Jul 22:52:39 22:55:44 19° 93° (E) 22:59:00 437.575/2403.000
AISAT 03 Jul 22:54:19 22:58:31 41° 72° (ENE) 23:02:44 437.250
HO-68 03 Jul 22:55:52 22:59:28 14° 273° (W) 23:02:31 435.675
DELFI C3 03 Jul 22:57:44 23:01:11 27° 265° (W) 23:04:35 145.870
HUMSAT D 03 Jul 23:00:41 23:04:48 78° 259° (W) 23:08:54 437.325/437.525
TIGRISAT 03 Jul 23:05:01 23:08:36 25° 95° (E) 23:12:18 435.000
50 SAT 03 Jul 23:07:38 23:11:24 61° 76° (ENE) 23:15:12 437.505
FUNcube-1 03 Jul 23:12:18 23:15:48 24° 265° (W) 23:19:11 145.935
CUBEBUG 1 03 Jul 23:15:02 23:19:03 35° 71° (ENE) 23:23:08 437.445
NANOSAT C BR1 03 Jul 23:20:33 23:22:44 14° 91° (E) 23:25:08 145.865
ESTCUBE 1 03 Jul 23:23:07 23:27:30 52° 74° (ENE) 23:31:57 437.505/2401.250
UWE-3 03 Jul 23:23:53 23:26:20 14° 269° (W) 23:28:34 435.000/436.395/437.385
DUCHIFAT 1 03 Jul 23:27:24 23:30:04 17° 92° (E) 23:32:52 145.980
Cosmos 2499 03 Jul 23:28:51 23:36:27 53° 268° (W) 23:44:32 435.465 / 435.565
POLYITAN 1 03 Jul 23:31:06 23:34:08 20° 93° (E) 23:37:18 437.675
VELOX 1 03 Jul 23:43:39 23:48:04 58° 259° (W) 23:52:30 145.980
UNISAT 6 03 Jul 23:43:48 23:48:11 72° 101° (E) 23:52:40 437.425
BUGSAT 1 03 Jul 23:47:58 23:50:44 18° 93° (E) 23:53:35 437.445
DX 1 03 Jul 23:57:24 00:00:51 22° 266° (W) 00:04:12 434.975-435.025
PCSat 03 Jul 23:58:08 00:00:28 13° 40° (NE) 00:03:00 145.827
QB50P2 04 Jul 00:00:12 00:04:13 43° 98° (E) 00:08:16 145.880/145.840
POPSAT HIP 1 04 Jul 00:01:09 00:05:10 43° 99° (E) 00:09:10 437.405
SPROUT 04 Jul 00:19:55 00:24:06 51° 74° (ENE) 00:28:19 437.525
UKube-1 04 Jul 00:20:59 00:23:13 13° 270° (W) 00:25:14 .
ANTELSAT 04 Jul 00:28:37 00:32:39 36° 288° (WNW) 00:36:43 437.575/2403.000
AISAT 04 Jul 00:32:14 00:35:18 17° 268° (W) 00:38:12 437.250
QB50P1 04 Jul 00:40:11 00:44:21 64° 285° (WNW) 00:48:30 145.935-145.965
TIGRISAT 04 Jul 00:41:35 00:45:19 28° 289° (WNW) 00:49:03 435.000
CUBEBUG 1 04 Jul 00:52:14 00:55:32 20° 267° (W) 00:58:44 437.445
NANOSAT C BR1 04 Jul 00:54:51 00:58:51 43° 287° (WNW) 01:02:49 145.865
DUCHIFAT 1 04 Jul 01:02:10 01:06:03 36° 288° (WNW) 01:09:52 145.980
ESTCUBE 1 04 Jul 01:02:17 01:04:46 14° 270° (W) 01:07:00 437.505/2401.250
TISAT 1 04 Jul 01:04:32 01:08:47 72° 258° (WSW) 01:13:02 437.305
POLYITAN 1 04 Jul 01:06:22 01:10:08 31° 289° (WNW) 01:13:50 437.675
SO-50 04 Jul 01:08:43 01:12:08 19° 42° (NE) 01:15:39 436.795
BEESAT 04 Jul 01:09:48 01:13:19 22° 67° (ENE) 01:17:00 436.000
RS-15 04 Jul 01:13:11 01:20:16 21° 102° (ESE) 01:28:07 29.354- 29.394
BUGSAT 1 04 Jul 01:22:40 01:26:19 31° 289° (WNW) 01:29:52 437.445
UNISAT 6 04 Jul 01:23:21 01:24:29 11° 295° (WNW) 01:25:22 437.425
SWISSCUBE 04 Jul 01:24:29 01:28:42 33° 70° (ENE) 01:33:00 437.505
ITUPSAT 1 04 Jul 01:29:25 01:33:39 33° 70° (ENE) 01:37:58 437.325
QB50P2 04 Jul 01:37:14 01:39:48 15° 293° (WNW) 01:42:12 145.880/145.840
POPSAT HIP 1 04 Jul 01:38:09 01:40:43 16° 293° (WNW) 01:43:08 437.405
PCSat 04 Jul 01:39:29 01:44:56 75° 60° (ENE) 01:50:20 145.827
SPROUT 04 Jul 01:58:31 02:00:34 13° 270° (W) 02:02:23 437.525
Oscar 19 04 Jul 02:25:12 02:30:12 53° 100° (E) 02:35:13 437.125/150
Gurwin Techsat 1B 04 Jul 02:26:39 02:29:35 15° 89° (E) 02:32:48 435.225
KKS-1 04 Jul 02:34:58 02:38:39 26° 69° (ENE) 02:42:24 437.445
ITAMSAT 1 04 Jul 02:36:24 02:39:48 18° 91° (E) 02:43:23 435.822/435.867
Cosmos 2491 04 Jul 02:41:48 02:50:20 56° 77° (ENE) 02:58:52 435.465 / 435.565
BEESAT 04 Jul 02:46:29 02:50:56 39° 262° (W) 02:55:25 436.000
SO-50 04 Jul 02:48:17 02:53:13 67° 241° (WSW) 02:58:02 436.795
AIST 1 04 Jul 03:00:35 03:04:41 39° 77° (ENE) 03:08:46
SWISSCUBE 04 Jul 03:02:39 03:06:36 25° 266° (W) 03:10:29 437.505
ITUPSAT 1 04 Jul 03:07:39 03:11:36 25° 266° (W) 03:15:28 437.325
YUBILEINY 04 Jul 03:14:57 03:22:44 40° 88° (E) 03:30:42 435.215
RS-15 04 Jul 03:20:25 03:31:20 88° 301° (WNW) 03:42:39 29.354- 29.394
PCSat 04 Jul 03:25:01 03:27:47 14° 255° (WSW) 03:30:14 145.827
STARS 04 Jul 03:27:54 03:32:13 60° 74° (ENE) 03:36:35 437.465
JAS-2 04 Jul 03:39:37 03:45:08 27° 94° (E) 03:51:17 435.910
AO-7 04 Jul 03:56:56 04:02:50 22° 91° (E) 04:09:05 29.400- 29.500
Gurwin Techsat 1B 04 Jul 04:04:50 04:10:05 62° 287° (WNW) 04:15:19 435.225
Oscar 19 04 Jul 04:05:40 04:09:12 18° 295° (WNW) 04:12:33 437.125/150
KKS-1 04 Jul 04:11:24 04:15:13 27° 265° (W) 04:18:59 437.445
ITAMSAT 1 04 Jul 04:14:36 04:19:41 52° 288° (WNW) 04:24:42 435.822/435.867
MOZHAYETS 4 04 Jul 04:23:47 04:27:58 37° 72° (ENE) 04:32:14
AIST 1 04 Jul 04:39:21 04:42:02 16° 273° (W) 04:44:31
Cosmos 2491 04 Jul 04:39:27 04:46:48 30° 275° (W) 04:53:51 435.465 / 435.565
HORYU 2 04 Jul 05:03:39 05:08:09 80° 103° (ESE) 05:12:37 437.375
STARS 04 Jul 05:07:37 05:09:08 11° 271° (W) 05:10:23 437.465
YUBILEINY 04 Jul 05:11:24 05:19:33 42° 287° (WNW) 05:27:39 435.215
JAS-2 04 Jul 05:23:59 05:30:24 55° 288° (WNW) 05:37:32 435.910
RS-15 04 Jul 05:36:15 05:45:37 29° 328° (NNW) 05:55:04 29.354- 29.394
Cosmos 2504 04 Jul 05:43:09 05:49:15 35° 88° (E) 05:55:26 435.465 / 435.565
AO-7 04 Jul 05:48:08 05:56:31 76° 290° (WNW) 06:04:50 29.400- 29.500
MOZHAYETS 4 04 Jul 06:01:59 06:05:21 20° 268° (W) 06:08:38
CUBESAT XI-V 04 Jul 06:25:30 06:30:08 61° 74° (ENE) 06:34:49 437.345
HORYU 2 04 Jul 06:43:56 06:44:13 10° 297° (WNW) 06:44:13 437.375
CUTE-I 04 Jul 06:46:18 06:50:49 28° 94° (E) 06:55:25 437.470
PRISM 04 Jul 06:52:19 06:56:06 35° 71° (ENE) 06:59:58 437.425
O/OREOS (USA 219) 04 Jul 06:58:15 07:00:45 15° 101° (E) 07:03:27 437.305
STRAND 1 04 Jul 07:08:41 07:13:43 61° 74° (ENE) 07:18:50 437.568
Cubesat XI-IV 04 Jul 07:19:50 07:25:08 59° 101° (E) 07:30:25 437.490
BEESAT 3 04 Jul 07:31:40 07:35:33 47° 117° (ESE) 07:39:31 437.485
Cosmos 2504 04 Jul 07:35:07 07:41:26 36° 286° (WNW) 07:47:39 435.465 / 435.565
AO-7 04 Jul 07:43:02 07:48:08 17° 308° (NW) 07:52:49 29.400- 29.500
BEESAT 2 04 Jul 07:43:12 07:47:08 49° 117° (ESE) 07:51:09 435.950
DANDE 04 Jul 07:43:48 07:49:37 27° 94° (E) 07:54:37 436.750
ISS 04 Jul 07:48:34 07:50:59 20° 132° (SE) 07:53:28 145.825
GONETS M04 04 Jul 07:55:31 07:59:22 14° 79° (ENE) 08:03:51
RS-15 04 Jul 07:56:10 08:03:20 18° 3° (N) 08:10:43 29.354- 29.394
M-CUBED/EXP-1 PRIME 04 Jul 08:01:37 08:04:01 19° 64° (ENE) 08:06:35 437.505
CUBESAT XI-V 04 Jul 08:05:51 08:08:03 13° 272° (W) 08:10:00 437.345
VERMONT LUNAR 04 Jul 08:15:35 08:18:31 40° 157° (SSE) 08:21:30 437.305
BRITE-PL 04 Jul 08:18:56 08:22:09 21° 92° (E) 08:25:22 437.365/2234.400
CUSAT 1 04 Jul 08:24:37 08:31:23 76° 99° (E) 08:36:31 437.405
CUTE-I 04 Jul 08:26:05 08:30:58 35° 291° (WNW) 08:35:45 437.470
PRISM 04 Jul 08:28:49 08:31:42 18° 268° (W) 08:34:28 437.425
PHONESAT 2.4 04 Jul 08:29:00 08:30:28 12° 146° (SE) 08:32:02 2401.200-2431.200
HO-68 04 Jul 08:33:54 08:38:27 19° 90° (E) 08:43:22 435.675
O/OREOS (USA 219) 04 Jul 08:35:32 08:39:50 45° 296° (WNW) 08:44:08 437.305
DOVE 4 04 Jul 08:43:22 08:45:17 13° 90° (E) 08:47:25 437.250
STRAND 1 04 Jul 08:50:27 08:53:26 15° 270° (W) 08:56:10 437.568
AIST 2 04 Jul 08:58:52 09:03:07 80° 121° (ESE) 09:07:24 435.215
Cubesat XI-IV 04 Jul 09:01:10 09:04:49 18° 296° (WNW) 09:08:16 437.490
AUBIESAT-1 04 Jul 09:01:20 09:04:38 73° 253° (WSW) 09:08:03 437.475
COMPASS 1 04 Jul 09:10:53 09:13:30 16° 91° (E) 09:16:16 437.405
BEESAT 3 04 Jul 09:10:56 09:13:47 18° 315° (NW) 09:16:34 437.485
CUTE 1.7 + AOD 2 04 Jul 09:18:50 09:22:40 32° 96° (E) 09:26:32 437.475
CANX-2 04 Jul 09:22:00 09:26:01 39° 97° (E) 09:30:04 2200.000
BEESAT 2 04 Jul 09:22:40 09:25:30 17° 315° (NW) 09:28:16 435.950
ISS 04 Jul 09:24:08 09:27:13 40° 328° (NNW) 09:30:18 145.825
DANDE 04 Jul 09:25:36 09:32:44 48° 282° (WNW) 09:38:16 436.750
CINEMA 3 04 Jul 09:30:44 09:33:52 21° 94° (E) 09:37:08 145.822/145.860
GOMX 1 04 Jul 09:33:34 09:37:48 90° 289° (WNW) 09:41:56 467.674
M-CUBED/EXP-1 PRIME 04 Jul 09:36:20 09:38:50 20° 261° (W) 09:41:20 437.505
GONETS M04 04 Jul 09:46:14 09:55:02 82° 96° (E) 10:03:49
ANTELSAT 04 Jul 09:51:45 09:54:08 15° 67° (ENE) 09:56:41 437.575/2403.000
VERMONT LUNAR 04 Jul 09:52:15 09:55:22 72° 352° (N) 09:58:31 437.305
BRITE-PL 04 Jul 09:57:03 10:00:47 28° 290° (WNW) 10:04:20 437.365/2234.400
TIGRISAT 04 Jul 10:03:33 10:06:34 20° 69° (ENE) 10:09:41 435.000
PHONESAT 2.4 04 Jul 10:04:41 10:08:02 53° 159° (SSE) 10:11:25 2401.200-2431.200
SEEDS 04 Jul 10:07:23 10:11:39 85° 284° (WNW) 10:15:55 437.485
RS-15 04 Jul 10:10:41 10:20:47 34° 36° (NE) 10:31:29 29.354- 29.394
CUSAT 1 04 Jul 10:10:56 10:14:09 14° 289° (WNW) 10:16:43 437.405
Cosmos 2499 04 Jul 10:14:04 10:18:58 21° 84° (E) 10:24:10 435.465 / 435.565
NANOSAT C BR1 04 Jul 10:14:06 10:14:41 10° 64° (ENE) 10:15:30 145.865
AAUSAT CUBESAT 2 04 Jul 10:19:18 10:23:33 89° 101° (E) 10:27:46 437.432
DOVE 4 04 Jul 10:19:26 10:23:24 43° 286° (WNW) 10:27:20 437.250
HO-68 04 Jul 10:19:49 10:26:59 76° 288° (WNW) 10:34:07 435.675
DUCHIFAT 1 04 Jul 10:20:08 10:21:41 12° 65° (ENE) 10:23:27 145.980
CUBEBUG 2 04 Jul 10:20:44 10:24:37 36° 97° (E) 10:28:38 437.445
POLYITAN 1 04 Jul 10:24:08 10:26:19 14° 66° (ENE) 10:28:42 437.675
ZACube-1 04 Jul 10:24:44 10:28:09 24° 95° (E) 10:31:44 437.345
Oscar 11 04 Jul 10:33:45 10:38:02 55° 100° (E) 10:42:18 145.826/435.025
DELFI C3 04 Jul 10:37:11 10:41:02 40° 98° (E) 10:44:54 145.870
BUGSAT 1 04 Jul 10:38:09 10:39:58 13° 66° (ENE) 10:41:57 437.445
AIST 2 04 Jul 10:40:11 10:42:18 13° 319° (NW) 10:44:15 435.215
UNISAT 6 04 Jul 10:41:50 10:46:02 54° 74° (ENE) 10:50:12 437.425
COMPASS 1 04 Jul 10:45:25 10:49:22 38° 287° (WNW) 10:53:17 437.405
HUMSAT D 04 Jul 10:46:32 10:49:20 18° 92° (E) 10:52:16 437.325/437.525
QB50P2 04 Jul 10:52:15 10:55:54 29° 71° (ENE) 10:59:37 145.880/145.840
POPSAT HIP 1 04 Jul 10:53:04 10:56:43 29° 71° (ENE) 11:00:24 437.405
CUTE 1.7 + AOD 2 04 Jul 10:55:09 10:58:24 21° 291° (WNW) 11:01:34 437.475
CANX-2 04 Jul 10:58:45 11:01:41 18° 292° (WNW) 11:04:28 2200.000
FUNcube-1 04 Jul 11:00:28 11:04:39 62° 101° (E) 11:08:54 145.935
ISS 04 Jul 11:02:57 11:04:20 12° 347° (NNW) 11:05:39 145.825
CINEMA 3 04 Jul 11:07:30 11:11:08 29° 289° (WNW) 11:14:45 145.822/145.860
UWE-3 04 Jul 11:12:15 11:16:27 70° 284° (WNW) 11:20:44 435.000/436.395/437.385
ESTCUBE 1 04 Jul 11:19:01 11:20:37 12° 89° (E) 11:22:28 437.505/2401.250
ANTELSAT 04 Jul 11:26:28 11:30:36 45° 261° (W) 11:34:42 437.575/2403.000
VERMONT LUNAR 04 Jul 11:29:16 11:32:24 82° 10° (N) 11:35:34 437.305
QB50P1 04 Jul 11:31:26 11:35:41 82° 77° (ENE) 11:39:56 145.935-145.965
VELOX 1 04 Jul 11:35:35 11:39:20 28° 95° (E) 11:43:08 145.980
TIGRISAT 04 Jul 11:39:13 11:43:08 33° 263° (W) 11:47:00 435.000
PHONESAT 2.4 04 Jul 11:42:36 11:46:02 71° 355° (N) 11:49:30 2401.200-2431.200
DX 1 04 Jul 11:45:34 11:49:55 69° 102° (ESE) 11:54:13 434.975-435.025
NANOSAT C BR1 04 Jul 11:45:47 11:50:01 69° 259° (W) 11:54:14 145.865
GONETS M04 04 Jul 11:46:44 11:53:07 21° 297° (WNW) 11:59:04
DUCHIFAT 1 04 Jul 11:52:53 11:57:03 58° 260° (W) 12:01:15 145.980
POLYITAN 1 04 Jul 11:57:46 12:01:53 48° 261° (W) 12:05:59 437.675
CUBEBUG 2 04 Jul 11:58:12 12:01:07 18° 292° (WNW) 12:03:56 437.445
ZACube-1 04 Jul 12:00:56 12:04:29 26° 289° (WNW) 12:08:02 437.345
Cosmos 2499 04 Jul 12:04:37 12:11:34 59° 282° (WNW) 12:18:36 435.465 / 435.565
UKube-1 04 Jul 12:06:52 12:11:12 74° 285° (WNW) 12:15:29 .
HO-68 04 Jul 12:10:03 12:13:42 14° 305° (NW) 12:16:59 435.675
BUGSAT 1 04 Jul 12:10:52 12:15:02 54° 260° (W) 12:19:09 437.445
Oscar 11 04 Jul 12:11:37 12:13:48 13° 294° (WNW) 12:15:48 145.826/435.025
DELFI C3 04 Jul 12:13:21 12:15:49 15° 293° (WNW) 12:18:10 145.870
50 SAT 04 Jul 12:18:38 12:22:32 72° 284° (WNW) 12:26:26 437.505
HUMSAT D 04 Jul 12:21:24 12:25:12 34° 288° (WNW) 12:28:59 437.325/437.525
UNISAT 6 04 Jul 12:21:31 12:23:13 12° 271° (W) 12:24:40 437.425
AISAT 04 Jul 12:22:09 12:26:35 83° 283° (WNW) 12:30:57 437.250
RS-15 04 Jul 12:22:58 12:34:46 83° 240° (WSW) 12:46:59 29.354- 29.394
QB50P2 04 Jul 12:28:28 12:31:50 22° 266° (W) 12:35:06 145.880/145.840
POPSAT HIP 1 04 Jul 12:29:13 12:32:36 22° 266° (W) 12:35:53 437.405
FUNcube-1 04 Jul 12:39:08 12:40:33 11° 294° (WNW) 12:41:44 145.935
CUBEBUG 1 04 Jul 12:40:43 12:45:06 84° 103° (ESE) 12:49:26 437.445
TISAT 1 04 Jul 12:51:00 12:53:54 18° 93° (E) 12:56:54 437.305
ESTCUBE 1 04 Jul 12:53:28 12:57:58 60° 286° (WNW) 13:02:25 437.505/2401.250
VERMONT LUNAR 04 Jul 13:06:21 13:09:11 30° 206° (SSW) 13:12:02 437.305
VELOX 1 04 Jul 13:12:10 13:15:49 25° 291° (WNW) 13:19:23 145.980
PHONESAT 2.4 04 Jul 13:20:42 13:24:10 88° 186° (S) 13:27:39 2401.200-2431.200
DX 1 04 Jul 13:24:19 13:25:38 11° 296° (WNW) 13:26:43 434.975-435.025
YUBILEINY 04 Jul 13:27:01 13:32:27 18° 61° (ENE) 13:38:22 435.215
Oscar 19 04 Jul 13:40:55 13:46:00 69° 75° (ENE) 13:51:07 437.125/150
SPROUT 04 Jul 13:43:26 13:47:42 67° 285° (WNW) 13:51:54 437.525
Gurwin Techsat 1B 04 Jul 13:46:24 13:50:27 23° 66° (ENE) 13:54:38 435.225
ITAMSAT 1 04 Jul 13:53:09 13:57:20 26° 67° (ENE) 14:01:39 435.822/435.867
Cosmos 2491 04 Jul 13:53:18 13:54:17 10° 76° (ENE) 13:56:06 435.465 / 435.565
ISS 04 Jul 14:16:29 14:19:12 24° 27° (NNE) 14:21:54 145.825
TISAT 1 04 Jul 14:25:59 14:29:47 33° 288° (WNW) 14:33:31 437.305
RS-15 04 Jul 14:37:55 14:45:55 20° 258° (WSW) 14:53:11 29.354- 29.394
BEESAT 04 Jul 14:47:21 14:52:06 57° 101° (E) 14:56:48 436.000
AO-7 04 Jul 14:54:50 15:01:37 30° 59° (ENE) 15:08:38 29.400- 29.500
PHONESAT 2.4 04 Jul 14:59:00 15:01:58 26° 208° (SSW) 15:04:56 2401.200-2431.200
SWISSCUBE 04 Jul 15:02:54 15:07:44 89° 278° (W) 15:12:32 437.505
ITUPSAT 1 04 Jul 15:08:08 15:13:00 88° 282° (WNW) 15:17:48 437.325
STARS 04 Jul 15:20:49 15:22:18 12° 89° (E) 15:24:02 437.465
YUBILEINY 04 Jul 15:21:54 15:30:42 89° 266° (W) 15:39:31 435.215
Oscar 19 04 Jul 15:23:32 15:25:57 13° 272° (W) 15:28:04 437.125/150
Gurwin Techsat 1B 04 Jul 15:25:08 15:30:11 43° 262° (W) 15:35:14 435.225
AIST 1 04 Jul 15:29:13 15:32:47 25° 90° (E) 15:36:26
ITAMSAT 1 04 Jul 15:31:49 15:36:40 38° 263° (W) 15:41:31 435.822/435.867
JAS-2 04 Jul 15:36:05 15:41:08 58° 73° (ENE) 15:46:25 435.910
Cosmos 2491 04 Jul 15:41:00 15:49:42 67° 93° (E) 15:58:25 435.465 / 435.565
BEESAT 3 04 Jul 15:51:34 15:54:45 22° 48° (NE) 15:57:58 437.485
ISS 04 Jul 15:52:36 15:55:41 41° 224° (SW) 15:58:45 145.825
HORYU 2 04 Jul 16:00:43 16:05:04 63° 74° (ENE) 16:09:27 437.375
KKS-1 04 Jul 16:02:42 16:07:05 61° 101° (E) 16:11:28 437.445
BEESAT 2 04 Jul 16:03:38 16:06:55 23° 48° (NE) 16:10:13 435.950
PCSat 04 Jul 16:19:47 16:25:12 86° 118° (ESE) 16:30:40 145.827
BEESAT 04 Jul 16:26:38 16:29:30 15° 295° (WNW) 16:32:11 436.000
AO-7 04 Jul 16:45:41 16:53:56 63° 257° (WSW) 17:02:15 29.400- 29.500
STARS 04 Jul 16:54:53 16:59:11 57° 286° (WNW) 17:03:27 437.465
SO-50 04 Jul 17:01:20 17:05:53 52° 117° (ESE) 17:10:38 436.795
Cubesat XI-IV 04 Jul 17:05:15 17:06:43 11° 60° (ENE) 17:08:29 437.490
AIST 1 04 Jul 17:06:41 17:10:23 25° 286° (WNW) 17:14:01
O/OREOS (USA 219) 04 Jul 17:07:29 17:11:17 26° 59° (ENE) 17:15:09 437.305
Cosmos 2504 04 Jul 17:20:13 17:27:39 62° 80° (E) 17:35:40 435.465 / 435.565
YUBILEINY 04 Jul 17:21:17 17:26:28 16° 280° (W) 17:31:05 435.215
AIST 2 04 Jul 17:21:48 17:25:42 37° 52° (NE) 17:29:34 435.215
JAS-2 04 Jul 17:24:01 17:26:56 14° 272° (W) 17:29:36 435.910
BEESAT 3 04 Jul 17:29:07 17:32:47 33° 245° (WSW) 17:36:21 437.485
Cosmos 2491 04 Jul 17:40:10 17:47:23 26° 294° (WNW) 17:54:18 435.465 / 435.565
HORYU 2 04 Jul 17:41:01 17:42:14 11° 272° (W) 17:43:07 437.375
KKS-1 04 Jul 17:41:16 17:43:15 13° 296° (WNW) 17:45:03 437.445
BEESAT 2 04 Jul 17:41:23 17:45:02 31° 245° (WSW) 17:48:35 435.950
MOZHAYETS 4 04 Jul 17:56:31 18:01:10 77° 285° (WNW) 18:05:49
PCSat 04 Jul 18:06:05 18:09:25 16° 317° (NW) 18:12:35 145.827
CUTE-I 04 Jul 18:06:57 18:11:55 42° 70° (ENE) 18:16:59 437.470
CUBESAT XI-V 04 Jul 18:24:32 18:27:26 17° 90° (E) 18:30:31 437.345
Cubesat XI-IV 04 Jul 18:40:43 18:46:05 86° 77° (ENE) 18:51:31 437.490
SO-50 04 Jul 18:43:04 18:46:47 21° 316° (NW) 18:50:30 436.795
O/OREOS (USA 219) 04 Jul 18:46:47 18:50:42 28° 256° (WSW) 18:54:33 437.305
JUGNU 04 Jul 18:51:29 18:53:02 11° 181° (S) 18:54:35 437.505
AIST 2 04 Jul 19:00:58 19:04:03 20° 248° (WSW) 19:06:59 435.215
HO-68 04 Jul 19:03:54 19:07:01 14° 55° (NE) 19:10:32 435.675
CUSAT 1 04 Jul 19:04:45 19:06:57 23° 75° (ENE) 19:09:10 437.405
